Change the Weather History Date:

Thursday, October 11, 2012

  Actual Average Record
Temperature  
Mean Temperature 66 °F -  
Max Temperature 71 °F 63 °F 77 °F (1997)
Min Temperature 59 °F 54 °F 51 °F (2013)
Growing Degree Days 16 (Base 50)    
Moisture  
Dew Point 57 °F    
Average Humidity 74    
Maximum Humidity 83    
Minimum Humidity 52    
Precipitation  
Precipitation 0.12 in 0.11 in - ()
Sea Level Pressure  
Sea Level Pressure 29.83 in    
Wind  
Wind Speed 6 mph ()    
Max Wind Speed 14 mph    
Max Gust Speed -    
Visibility 6.1 miles    
Events Rain    
Averages and records for this station are not official NWS values.
T = Trace of Precipitation, MM = Missing Value Source: Averaged Metar Reports

Daily Weather History Graph

Daily Weather History Graph

Search for Another Location

Airport or City:

Trip Planner

Search our weather history database for the weather conditions in past years. The results will help you decide how hot, cold, wet, or windy it might be!

Date:

Astronomy

Oct. 11, 2012 Rise Set
Actual Time 7:37 AM CEST 6:49 PM CEST
Civil Twilight 7:08 AM CEST 7:18 PM CEST
Nautical Twilight 6:34 AM CEST 7:52 PM CEST
Astronomical Twilight 6:01 AM CEST 8:25 PM CEST
Moon 2:49 AM CEST (10/11) 4:24 PM CEST (10/11)
Length of Visible Light 12h 10m
Length of Day
11h 12m
Waning Crescent, 20% of the Moon is Illuminated
Oct 11
Waning Crescent
Oct 15
New
Oct 22
First Quarter
Oct 29
Full
Nov 7
Last Quarter

Hourly Weather History & Observations

Time (CEST) Temp. Dew Point Humidity Pressure Visibility Wind Dir Wind Speed Gust Speed Precip Events Conditions
12:55 AM 64.4 °F 57.2 °F 77% 29.83 in - WSW 4.6 mph - N/A   Clear
1:55 AM 64.4 °F 57.2 °F 77% 29.83 in - WSW 8.1 mph - N/A   Clear
2:00 AM 65 °F 57 °F 69% 29.83 in 6 mi WSW 8.1 mph - -  
2:55 AM 66.2 °F 59.0 °F 78% 29.83 in - SW 8.1 mph - N/A   Clear
3:55 AM 66.2 °F 59.0 °F 78% 29.83 in - SSW 5.8 mph - N/A   Clear
4:55 AM 64.4 °F 57.2 °F 77% 29.83 in - SSE 1.2 mph - N/A   Clear
5:55 AM 64.4 °F 57.2 °F 77% 29.83 in - South 2.3 mph - N/A   Clear
6:55 AM 64.4 °F 57.2 °F 77% 29.83 in - South 2.3 mph - N/A   Clear
7:55 AM 64.4 °F 57.2 °F 77% 29.83 in - SE 2.3 mph - N/A   Clear
8:00 AM 64 °F 58 °F 74% 29.83 in 6 mi SE 2.3 mph - -   Clear
8:55 AM 64.4 °F 59.0 °F 83% 29.83 in 6.2 mi North 6.9 mph - N/A   Partly Cloudy
9:55 AM 66.2 °F 59.0 °F 78% 29.83 in 6.2 mi NNE 6.9 mph - N/A   Mostly Cloudy
10:55 AM 66.2 °F 59.0 °F 78% 29.83 in - NNE 9.2 mph - N/A   Clear
11:55 AM 68.0 °F 59.0 °F 73% 29.83 in - NNE 9.2 mph - N/A   Clear
12:55 PM 68.0 °F 57.2 °F 68% 29.83 in - NNE 9.2 mph - N/A   Clear
1:55 PM 68.0 °F 57.2 °F 68% 29.83 in - NNE 6.9 mph - N/A   Clear
2:00 PM 69 °F 57 °F 57% 29.83 in 6 mi NNE 6.9 mph - -   Mostly Cloudy
2:55 PM 71.6 °F 57.2 °F 60% 29.83 in - NE 4.6 mph - N/A   Clear
3:55 PM 68.0 °F 50.0 °F 52% 29.83 in - SW 13.8 mph - N/A   Clear
4:55 PM 66.2 °F 59.0 °F 78% 29.83 in 6.2 mi SW 11.5 mph - N/A   Partly Cloudy
5:55 PM 64.4 °F 59.0 °F 83% 29.83 in 6.2 mi SSW 6.9 mph - N/A Rain Light Rain
6:55 PM 62.6 °F 57.2 °F 82% 29.83 in 6.2 mi SW 4.6 mph - N/A Rain Light Rain
7:55 PM 62.6 °F 55.4 °F 77% 29.83 in 6.2 mi NW 8.1 mph - N/A Rain Rain
8:00 PM 63 °F 55 °F 69% 29.82 in 6 mi NW 8.1 mph - - Rain Rain
8:55 PM 60.8 °F 51.8 °F 72% 29.83 in 6.2 mi North 6.9 mph - N/A Rain Rain
9:55 PM 59.0 °F 51.8 °F 77% 29.86 in 6.2 mi North 5.8 mph - N/A Rain Rain